TimeCST,TemperatureF,Dew PointF,Humidity,Sea Level PressureIn,VisibilityMPH,Wind Direction,Wind SpeedMPH,Gust SpeedMPH,PrecipitationIn,Events,Conditions,WindDirDegrees,DateUTC
12:53 AM,45.0,39.9,82,30.31,10.0,Calm,Calm,-,N/A,,Clear,0,2012-11-19 06:53:00
1:53 AM,45.0,39.9,82,30.30,10.0,Calm,Calm,-,N/A,,Clear,0,2012-11-19 07:53:00
2:53 AM,42.1,39.9,92,30.30,10.0,Calm,Calm,-,N/A,,Clear,0,2012-11-19 08:53:00
3:53 AM,41.0,37.9,89,30.29,10.0,Calm,Calm,-,N/A,,Clear,0,2012-11-19 09:53:00
4:24 AM,41.0,37.4,87,30.29,1.8,Calm,Calm,-,N/A,,Clear,0,2012-11-19 10:24:00
4:34 AM,39.2,37.4,93,30.29,3.0,Calm,Calm,-,N/A,,Clear,0,2012-11-19 10:34:00
4:53 AM,37.0,35.1,93,30.30,6.0,Calm,Calm,-,N/A,,Clear,0,2012-11-19 10:53:00
5:17 AM,37.4,35.6,93,30.30,2.5,Calm,Calm,-,N/A,,Partly Cloudy,0,2012-11-19 11:17:00
5:20 AM,37.4,35.6,93,30.30,1.0,Calm,Calm,-,N/A,,Mist,0,2012-11-19 11:20:00
5:27 AM,37.4,35.6,93,30.30,0.5,Calm,Calm,-,N/A,Fog,Fog,0,2012-11-19 11:27:00
5:35 AM,37.4,35.6,93,30.30,1.2,Calm,Calm,-,N/A,,Partly Cloudy,0,2012-11-19 11:35:00
5:43 AM,37.4,35.6,93,30.30,2.0,Calm,Calm,-,N/A,,Clear,0,2012-11-19 11:43:00
5:50 AM,37.4,35.6,93,30.30,5.0,Calm,Calm,-,N/A,,Clear,0,2012-11-19 11:50:00
5:53 AM,37.0,35.1,93,30.30,8.0,Calm,Calm,-,N/A,,Clear,0,2012-11-19 11:53:00
6:11 AM,35.6,33.8,93,30.30,1.8,Calm,Calm,-,N/A,,Clear,0,2012-11-19 12:11:00
6:13 AM,37.4,35.6,93,30.30,0.8,Calm,Calm,-,N/A,,Clear,0,2012-11-19 12:13:00
6:30 AM,37.4,35.6,93,30.30,5.0,Calm,Calm,-,N/A,,Clear,0,2012-11-19 12:30:00
6:53 AM,39.0,37.0,93,30.31,10.0,Calm,Calm,-,N/A,,Clear,0,2012-11-19 12:53:00
7:53 AM,50.0,44.1,80,30.31,10.0,Calm,Calm,-,N/A,,Clear,0,2012-11-19 13:53:00
8:53 AM,53.1,45.0,74,30.32,10.0,Calm,Calm,-,N/A,,Clear,0,2012-11-19 14:53:00
9:53 AM,57.9,45.0,62,30.31,10.0,Calm,Calm,-,N/A,,Clear,0,2012-11-19 15:53:00
10:53 AM,61.0,45.0,56,30.30,10.0,Calm,Calm,-,N/A,,Clear,0,2012-11-19 16:53:00
11:53 AM,63.0,46.0,54,30.26,10.0,North,4.6,-,N/A,,Clear,350,2012-11-19 17:53:00
12:53 PM,66.9,46.9,49,30.24,10.0,Variable,5.8,-,N/A,,Clear,0,2012-11-19 18:53:00
1:53 PM,68.0,46.9,47,30.22,10.0,NW,6.9,-,N/A,,Partly Cloudy,320,2012-11-19 19:53:00
2:53 PM,68.0,46.9,47,30.21,10.0,NNW,6.9,-,N/A,,Clear,330,2012-11-19 20:53:00
3:53 PM,68.0,46.9,47,30.20,10.0,Calm,Calm,-,N/A,,Clear,0,2012-11-19 21:53:00
4:53 PM,61.0,46.9,60,30.19,10.0,NE,3.5,-,N/A,,Clear,40,2012-11-19 22:53:00
5:53 PM,55.9,45.0,67,30.19,10.0,Calm,Calm,-,N/A,,Clear,0,2012-11-19 23:53:00
6:53 PM,53.1,46.0,77,30.20,10.0,Calm,Calm,-,N/A,,Clear,0,2012-11-20 00:53:00
7:53 PM,46.9,43.0,86,30.21,10.0,Calm,Calm,-,N/A,,Clear,0,2012-11-20 01:53:00
8:53 PM,48.9,45.0,86,30.22,10.0,Calm,Calm,-,N/A,,Mostly Cloudy,0,2012-11-20 02:53:00
9:53 PM,46.9,44.1,90,30.21,10.0,Calm,Calm,-,N/A,,Mostly Cloudy,0,2012-11-20 03:53:00
10:53 PM,46.9,45.0,93,30.19,10.0,Calm,Calm,-,N/A,,Partly Cloudy,0,2012-11-20 04:53:00
11:53 PM,46.0,43.0,89,30.19,4.0,Calm,Calm,-,N/A,,Clear,0,2012-11-20 05:53:00